Location: Bushey
(51.6333°N, 0.3667°W)
Time: 03:12:36
(UTC+00:00)

IRS-1A Rocket - Visible Passes

Search period start: 17 June 2021 00:00
Search period end: 27 June 2021 00:00
Orbit: 852 x 931 km, 99.2° (Epoch: 16 June)

Date Brightness Start Highest point End Pass type
(mag) Time Alt. Az. Time Alt. Az. Time Alt. Az.
17 Jun 6.5 21:32:41 10° SW 21:37:00 21° W 21:41:18 10° NW visible
18 Jun 6.5 21:32:45 10° SW 21:37:04 21° W 21:41:20 10° NW visible
19 Jun 6.5 21:32:49 10° SW 21:37:07 21° W 21:41:24 10° NW visible
20 Jun 6.5 21:32:53 10° SW 21:37:11 21° W 21:41:26 10° NW visible
21 Jun 6.5 21:32:57 10° SW 21:37:15 21° W 21:41:30 10° NW visible
22 Jun 6.5 21:33:02 10° SW 21:37:18 21° W 21:41:32 10° NW visible
23 Jun 6.5 21:33:06 10° SW 21:37:22 21° W 21:41:35 10° NW visible
24 Jun 6.5 21:33:11 10° SW 21:37:25 21° W 21:41:38 10° NW visible
25 Jun 6.5 21:33:15 10° SW 21:37:29 21° W 21:41:41 10° NW visible
26 Jun 6.5 21:33:19 10° SW 21:37:33 21° W 21:41:44 10° NW visible
